Regional Weather Roundup
Issued by NWS

Home | Current Version | Previous Version | Text Only | Print | Product List | Glossary On
Versions: 1 2 3 4 5 6 7 8 9 10 11 12 13 14 15 16 17 18 19 20 21 22 23 24 25 26 27 28 29 30 31 32 33 34 35 36 37 38 39 40 41 42 43 44 45 46 47 48 49 50
000
ASUS46 KLOX 302013
RWRCA

SOUTHERN CALIFORNIA WEATHER ROUNDUP
NATIONAL WEATHER SERVICE OXNARD CALIFORNIA
100 PM PDT THU JUL 30 2015

NOTE: "FAIR" INDICATES FEW OR NO CLOUDS BELOW 12,000 FEET WITH NO
SIGNIFICANT WEATHER AND/OR OBSTRUCTIONS TO VISIBILITY.

  -  STATIONS PRECEEDED BY AN ASTERISK (*) ARE NOT NWS OR FAA
     STATIONS AND ARE NOT SUBJECT TO NWS AND FAA QUALITY CONTROL.

CAZ041-042-087-302100-
LA AND ORANGE COUNTY COASTAL AREAS


CITY           SKY/WX    TMP DP  RH WIND       PRES   REMARKS
L.A. DOWNTOWN  SUNNY     83  66  56 MISG      29.98F
L.A. AIRPORT   MOSUNNY   75  65  70 W12       30.01F
LONG BEACH     SUNNY     83  65  54 S10       29.99F

CITY           SKY/WX    TMP DP  RH WIND       PRES   REMARKS
AVALON           N/A     73 N/A N/A MISG        N/A
FULLERTON      SUNNY     86  66  51 S8        29.97F
HAWTHORNE      SUNNY     79  65  62 SW12      30.00F
*REDONDO BEACH   N/A     78  65  65 W3        30.01F
SANTA ANA      MOSUNNY   80  65  59 SW10      30.00S
STA MONICA APT SUNNY     78  64  61 SW10      30.00F
TORRANCE       MOSUNNY   81  66  61 NW14      30.01F
*UCLA            N/A     79  63  57 SW7       29.97F

$$

CAZ547-548-048-302100-
LA COUNTY VALLEYS AND INLAND EMPIRE


CITY           SKY/WX    TMP DP  RH WIND       PRES   REMARKS
BURBANK        SUNNY     87  64  46 VRB5      29.99F
VAN NUYS       SUNNY     90  64  42 VRB3      29.99F HX  91

CITY           SKY/WX    TMP DP  RH WIND       PRES   REMARKS
CORONA AIRPORT CLEAR     90  67  46 W13       29.97F HX  93
CHINO          MOSUNNY   94  64  37 W10       29.98F HX  95
MARCH AFB      MOSUNNY   95  65  36 NW10      30.01F HX  97
*NORTHRIDGE      N/A    N/A N/A N/A SE3         N/A
ONTARIO        MOSUNNY   94  64  37 W10       29.98F HX  95
*PASADENA        N/A     88  70  55 CALM        N/A  HX  92
POMONA         SUNNY     84  64  51 SW9       30.03F
RIVERSIDE      SUNNY     94  65  38 W8        29.97F HX  96
SAN BERNARDINO PTSUNNY   95  57  28 SW9       29.98F HX  94
*WHITEMAN AP   PTSUNNY   84  63  48 SE7       30.04F
*WOODLAND HILL   N/A     93  63  36 N3          N/A  HX  94

$$

CAZ054-055-302100-
LA AND SAN BERNARDINO COUNTY MOUNTAINS


CITY           SKY/WX    TMP DP  RH WIND       PRES   REMARKS
*BIG BEAR AIRP MOCLDY    72  50  46 NE5       30.39F
SANDBERG       CLOUDY    83  54  36 E13G22    30.24F

$$

CAZ028-029-059-060-099-302100-
ANTELOPE VALLEY AND SURROUNDING AREAS


CITY           SKY/WX    TMP DP  RH WIND       PRES   REMARKS
LANCASTER      PTSUNNY   94  55  26 NE10G17   30.08F HX  92
PALMDALE       PTSUNNY   89  61  38 E6        30.10F

CITY           SKY/WX    TMP DP  RH WIND       PRES   REMARKS
29 PALMS       MOSUNNY   96  60  30 SE7       30.10F THUNDER HX  96
BARSTOW/DAGGET PTSUNNY   93  56  28 VRB5      30.05F HX  91
BISHOP         PTSUNNY   93  50  23 SE8       30.20F HX  90
CHINA LAKE     CLOUDY    94  51  23 CALM      30.08F HX  91
MOJAVE         MOSUNNY   88  55  33 CALM      30.13F
NEEDLES        SUNNY    106  54  17 NE5       29.93F HX 104
VICTORVILLE    MOSUNNY   91  52  25 CALM      30.12F

$$

CAZ039-040-302100-
VENTURA AND SANTA BARBARA COUNTY COAST


CITY           SKY/WX    TMP DP  RH WIND       PRES   REMARKS
CAMARILLO      MOSUNNY   79  63  57 W10       30.00F
OXNARD AIRPORT MOSUNNY   72  63  73 W14       30.01F
*POINT MUGU    PTSUNNY   78  64  61 W12       30.02S
SBA APT/GOLETA PTSUNNY   75  62  64 SW8       30.00F
*SANTA BARBARA   N/A     82  62  51 NE3       30.07F
*VENTURA         N/A     78  64  60 SW8       29.62S

$$

CAZ044-045-302100-
VENTURA COUNTY VALLEYS


CITY           SKY/WX    TMP DP  RH WIND       PRES   REMARKS
*SIMI VALLEY     N/A     87  67  51 W5        29.93F HX  90
*OJAI            N/A     93  66  41 CALM      29.91S HX  95
*FILLMORE        N/A     90  69  49 SW2       29.88F HX  94

$$

CAZ053-302100-
VENTURA COUNTY MOUNTAINS


CITY           SKY/WX    TMP DP  RH WIND       PRES   REMARKS

$$

CAZ034-035-036-302100-
CENTRAL COAST AND SANTA YNEZ VALLEY


CITY           SKY/WX    TMP DP  RH WIND       PRES   REMARKS
SAN LUIS OBISP SUNNY     78  59  51 NW13      30.01F
SANTA MARIA    MOSUNNY   73  61  65 NW10      30.03F

CITY           SKY/WX    TMP DP  RH WIND       PRES   REMARKS
*CAL POLY SLO    N/A     77  64  65 W8          N/A
*LOMPOC        MOSUNNY   73  59  60 W18       30.04R
*SANTA YNEZ    FAIR      90  54  29 W6        30.00F

$$

CAZ037-038-051-302100-
SAN LUIS OBISPO COUNTY INTERIOR AND CUYAMA VALLEY


CITY           SKY/WX    TMP DP  RH WIND       PRES   REMARKS
*CUYAMA          N/A     86  56  35 SE3       29.91S
PASO ROBLES    SUNNY     96  51  21 NW7       29.97F HX  93

$$

CAZ032-033-061-302100-
SOUTHERN DESERTS


CITY           SKY/WX    TMP DP  RH WIND       PRES   REMARKS
BLYTHE         SUNNY    105  62  24 VRB3      29.91F HX 107
IMPERIAL       SUNNY    104  63  26 MISG      29.88F HX 106
PALM SPRINGS   MOSUNNY  104  63  26 VRB3G17   29.93F HX 106
THERMAL        SUNNY    106  60  22 SE12      29.87F HX 107

$$

ELSEWHERE ACROSS THE WESTERN UNITED STATES AND MEXICO


CITY           SKY/WX    TMP DP  RH WIND       PRES   REMARKS
DENVER, CO     MOSUNNY   88  42  20 VRB6G18   30.32F
GRAND CANYON,  CLOUDY    77  48  35 SE5       30.41F
HONOLULU, HI   MOSUNNY   88  70  55 E12       29.97F HX  92
KAHULUI, MAUI  MOSUNNY   88  72  58 E16G26    29.97F HX  94
LAKE TAHOE, CA SUNNY     86  40  19 VRB3      30.37F
LAS VEGAS, NV  CLOUDY    99  47  17 N7        30.00F HX  95
MAMMOTH LAKES, FAIR      84  36  17 E13G18    30.44F
MEXICO CITY, M MOSUNNY   77  39  25 N12       30.33F
PHOENIX, AZ    MOSUNNY   98  59  27 N5        29.96F HX  98
PORTLAND, OR   MOSUNNY   91  53  27 W9        29.99F
RENO, NV       MOSUNNY   98  25   7 E13G21    30.24F HX  91
SALT LAKE CITY MOSUNNY   89  32  13 NW10      30.27F
SAN DIEGO, CA  MOSUNNY   79  65  62 W13       30.02F
SAN FRANCISCO, MOSUNNY   70  59  68 NW15      30.03F
SAN JOSE, CA   MOSUNNY   79  62  56 NW8       30.01F
SEATTLE, WA    SUNNY     87  51  28 NW5G20    30.09F
TIJUANA, MEX   MOSUNNY   79  63  57 W16       30.03S

$$

STATION/POSITION TIME  TEMP    WIND        PRES    VSBY  WAVE
                       AIR SEA DIR/SP/G                  HT/PER
                 (UTC) (F)     (DEG/KT/KT) (MB)    (MI)  (FT/S)
POINT ARGUELLO B NOT AVBL
WEST SANTA BARBA 1950   62 65  310/ 14/ 16 1016.1S         4/15
POINT CONCEPTION NOT AVBL
EAST SANTA BARBA 1900   64 67  240/ 10/ 14 1017.0S
SANTA MONICA BAY 1950   68 74  270/  6/  8 1016.4F         3/15



USA.gov is the U.S. government's official web portal to all federal, state and local government web resources and services.